N145NG VA88-VA88

Flight info

Callsign N145NG
Flight time 0h 17m
Altitude 1200
Route VFR
Aircraft EC45/L-G/C

Departure

Time 2026-05-06 11:59
Airport Sentara Norfolk General Hospital Heliport (VA88)

Arrival

Time 2026-05-06 12:17
Airport Sentara Norfolk General Hospital Heliport (VA88)
Time Latitude Longitude Altitude Speed Heading
2026-05-06 11:51 36.77834 -76.45142 31 ft 0 kts 28°
2026-05-06 11:57 36.77835 -76.45140 38 ft 2 kts 34°
2026-05-06 11:58 36.77847 -76.45117 144 ft 3 kts 304°
2026-05-06 11:58 36.77893 -76.45206 186 ft 31 kts 282°
2026-05-06 11:58 36.77970 -76.45612 294 ft 55 kts 285°
2026-05-06 11:58 36.78142 -76.46115 523 ft 71 kts 291°
2026-05-06 11:59 36.78382 -76.46708 492 ft 80 kts 298°
2026-05-06 11:59 36.78706 -76.47363 599 ft 100 kts 301°
2026-05-06 11:59 36.79142 -76.48112 691 ft 112 kts 306°
2026-05-06 11:59 36.79658 -76.48869 785 ft 115 kts 309°
2026-05-06 12:00 36.80205 -76.49596 774 ft 114 kts 313°
2026-05-06 12:00 36.80773 -76.50283 767 ft 113 kts 315°
2026-05-06 12:00 36.81359 -76.50930 764 ft 112 kts 318°
2026-05-06 12:00 36.81965 -76.51540 762 ft 112 kts 321°
2026-05-06 12:01 36.82590 -76.52112 761 ft 111 kts 323°
2026-05-06 12:01 36.83235 -76.52647 762 ft 111 kts 326°
2026-05-06 12:01 36.83897 -76.53145 759 ft 111 kts 328°
2026-05-06 12:01 36.84567 -76.53600 758 ft 111 kts 331°
2026-05-06 12:02 36.85262 -76.54020 761 ft 111 kts 334°
2026-05-06 12:02 36.85972 -76.54400 761 ft 111 kts 336°
2026-05-06 12:02 36.86672 -76.54800 761 ft 111 kts 330°
2026-05-06 12:02 36.87302 -76.55348 760 ft 110 kts 319°
2026-05-06 12:03 36.87829 -76.56039 758 ft 110 kts 307°
2026-05-06 12:03 36.88232 -76.56847 761 ft 109 kts 296°
2026-05-06 12:03 36.88532 -76.57719 760 ft 109 kts 292°
2026-05-06 12:03 36.88832 -76.58562 790 ft 99 kts 294°
2026-05-06 12:04 36.89136 -76.59264 873 ft 86 kts 305°
2026-05-06 12:04 36.89541 -76.59743 752 ft 74 kts 328°
2026-05-06 12:04 36.89988 -76.59934 575 ft 64 kts 354°
2026-05-06 12:04 36.90389 -76.59848 411 ft 56 kts 21°
2026-05-06 12:05 36.90758 -76.59667 346 ft 58 kts 19°
2026-05-06 12:05 36.91128 -76.59433 353 ft 61 kts 30°
2026-05-06 12:05 36.91456 -76.59080 320 ft 63 kts 50°
2026-05-06 12:05 36.91621 -76.58604 262 ft 54 kts 79°
2026-05-06 12:06 36.91647 -76.58248 121 ft 27 kts 94°
2026-05-06 12:06 36.91647 -76.58117 83 ft 6 kts 100°
2026-05-06 12:06 36.91641 -76.58081 71 ft 0 kts 99°
2026-05-06 12:08 36.91639 -76.58083 90 ft 1 kts 98°
2026-05-06 12:08 36.91648 -76.58069 156 ft 10 kts 89°
2026-05-06 12:09 36.91676 -76.57818 221 ft 49 kts 78°
2026-05-06 12:09 36.91784 -76.57261 380 ft 81 kts 75°
2026-05-06 12:09 36.91849 -76.56470 451 ft 102 kts 91°
2026-05-06 12:09 36.91672 -76.55560 466 ft 112 kts 109°
2026-05-06 12:10 36.91330 -76.54675 515 ft 114 kts 120°
2026-05-06 12:10 36.90870 -76.53858 564 ft 115 kts 129°
2026-05-06 12:10 36.90349 -76.53090 577 ft 116 kts 133°
2026-05-06 12:10 36.89820 -76.52331 579 ft 116 kts 127°
2026-05-06 12:11 36.89411 -76.51464 580 ft 116 kts 117°
2026-05-06 12:11 36.89076 -76.50551 580 ft 115 kts 114°
2026-05-06 12:11 36.88761 -76.49634 580 ft 115 kts 114°
2026-05-06 12:11 36.88432 -76.48735 579 ft 116 kts 116°
2026-05-06 12:12 36.88067 -76.47839 579 ft 116 kts 119°
2026-05-06 12:12 36.87693 -76.46942 580 ft 117 kts 117°
2026-05-06 12:12 36.87365 -76.46015 580 ft 117 kts 113°
2026-05-06 12:12 36.87097 -76.45054 579 ft 117 kts 106°
2026-05-06 12:13 36.86953 -76.44048 579 ft 118 kts 96°
2026-05-06 12:13 36.86890 -76.43026 580 ft 118 kts 94°
2026-05-06 12:13 36.86832 -76.42005 580 ft 118 kts 94°
2026-05-06 12:13 36.86777 -76.40987 581 ft 117 kts 94°
2026-05-06 12:14 36.86725 -76.39969 581 ft 117 kts 94°
2026-05-06 12:14 36.86677 -76.38957 587 ft 114 kts 93°
2026-05-06 12:14 36.86652 -76.38055 588 ft 94 kts 92°
2026-05-06 12:14 36.86642 -76.37296 583 ft 82 kts 94°
2026-05-06 12:15 36.86604 -76.36610 580 ft 77 kts 97°
2026-05-06 12:15 36.86536 -76.35952 576 ft 81 kts 99°
2026-05-06 12:15 36.86442 -76.35208 578 ft 89 kts 99°
2026-05-06 12:15 36.86344 -76.34428 578 ft 94 kts 97°
2026-05-06 12:16 36.86307 -76.33608 596 ft 91 kts 89°
2026-05-06 12:16 36.86365 -76.32872 469 ft 79 kts 82°
2026-05-06 12:16 36.86443 -76.32238 391 ft 69 kts 83°
2026-05-06 12:16 36.86459 -76.31681 373 ft 61 kts 98°
2026-05-06 12:17 36.86396 -76.31189 335 ft 53 kts 103°
2026-05-06 12:17 36.86339 -76.30783 285 ft 42 kts 102°
2026-05-06 12:17 36.86270 -76.30510 231 ft 23 kts 120°
2026-05-06 12:17 36.86209 -76.30381 205 ft 13 kts 124°
2026-05-06 12:18 36.86176 -76.30339 167 ft 0 kts 120°